STARLINK BC

Last updated on Jan. 16, 2020, 12:02 a.m. UTC

1 44964U 20001BC  20015.58334491 -.00042032  00000-0 -19176-3 0  9995
2 44964  52.9999 354.7445 0000718 209.9096 222.1501 15.82852609  1353

Satellite is not in orbit.